Time,TemperatureF,DewpointF,PressureIn,WindDirection,WindDirectionDegrees,WindSpeedMPH,WindSpeedGustMPH,Humidity,HourlyPrecipIn,Conditions,Clouds,dailyrainin,SoftwareType,DateUTC
2017-02-27 00:00:00,31.5,23.2,30.33,WSW,241,0.0,0.0,71,0.00,,,0.00,VWS V15.00,2017-02-27 05:00:00,
2017-02-27 00:05:00,31.4,22.4,30.33,WSW,241,0.0,0.0,69,0.00,,,0.00,VWS V15.00,2017-02-27 05:05:00,
2017-02-27 00:10:00,31.5,23.2,30.33,WSW,241,0.0,0.0,71,0.00,,,0.00,VWS V15.00,2017-02-27 05:10:00,
2017-02-27 00:15:00,31.5,23.2,30.33,WSW,241,0.0,0.0,71,0.00,,,0.00,VWS V15.00,2017-02-27 05:15:00,
2017-02-27 00:20:00,31.5,22.9,30.33,WSW,241,0.0,0.0,70,0.00,,,0.00,VWS V15.00,2017-02-27 05:20:00,
2017-02-27 00:25:00,31.3,22.3,30.33,WSW,249,0.0,1.0,69,0.00,,,0.00,VWS V15.00,2017-02-27 05:25:00,
2017-02-27 00:30:00,31.2,22.9,30.33,West,267,0.0,0.0,71,0.00,,,0.00,VWS V15.00,2017-02-27 05:30:00,
2017-02-27 00:35:00,31.2,22.9,30.34,NW,309,0.0,3.0,71,0.00,,,0.00,VWS V15.00,2017-02-27 05:35:00,
2017-02-27 00:40:00,31.1,22.8,30.33,NW,309,0.0,3.0,71,0.00,,,0.00,VWS V15.00,2017-02-27 05:40:00,
2017-02-27 00:45:00,31.0,22.7,30.33,NW,309,0.0,3.0,71,0.00,,,0.00,VWS V15.00,2017-02-27 05:45:00,
2017-02-27 00:50:00,30.8,22.9,30.33,NW,309,0.0,3.0,72,0.00,,,0.00,VWS V15.00,2017-02-27 05:50:00,
2017-02-27 00:55:00,30.8,22.9,30.33,NW,309,0.0,3.0,72,0.00,,,0.00,VWS V15.00,2017-02-27 05:55:00,
2017-02-27 01:00:00,30.7,23.1,30.33,NW,309,0.0,0.0,73,0.00,,,0.00,VWS V15.00,2017-02-27 06:00:00,
2017-02-27 01:05:00,30.7,23.4,30.33,NW,309,0.0,0.0,74,0.00,,,0.00,VWS V15.00,2017-02-27 06:05:00,
2017-02-27 01:10:00,30.6,23.6,30.33,NW,309,0.0,0.0,75,0.00,,,0.00,VWS V15.00,2017-02-27 06:10:00,
2017-02-27 01:15:00,30.5,23.5,30.33,NW,309,0.0,1.0,75,0.00,,,0.00,VWS V15.00,2017-02-27 06:15:00,
2017-02-27 01:20:00,30.6,23.3,30.33,NW,309,0.0,1.0,74,0.00,,,0.00,VWS V15.00,2017-02-27 06:20:00,
2017-02-27 01:25:00,30.7,23.4,30.33,NW,309,0.0,1.0,74,0.00,,,0.00,VWS V15.00,2017-02-27 06:25:00,
2017-02-27 01:30:00,30.7,23.4,30.34,NW,309,0.0,0.0,74,0.00,,,0.00,VWS V15.00,2017-02-27 06:30:00,
2017-02-27 01:35:00,30.6,23.3,30.34,South,190,2.0,2.0,74,0.00,,,0.00,VWS V15.00,2017-02-27 06:35:00,
2017-02-27 01:40:00,30.7,23.7,30.34,South,190,0.0,3.0,75,0.00,,,0.00,VWS V15.00,2017-02-27 06:40:00,
2017-02-27 01:45:00,30.6,23.0,30.34,South,190,0.0,3.0,73,0.00,,,0.00,VWS V15.00,2017-02-27 06:45:00,